Regional Weather Roundup
Issued by NWS

Home | Current Version | Previous Version | Graphics & Text | Print | Product List | Glossary Off
Versions: 1 2 3 4 5 6 7 8 9 10 11 12 13 14 15 16 17 18 19 20 21 22 23 24 25 26 27 28 29 30 31 32 33 34 35 36 37 38 39 40 41 42 43 44 45 46 47 48 49 50

000
ASUS43 KMKX 300321
RWRWI

WISCONSIN REGIONAL WEATHER ROUNDUP
NATIONAL WEATHER SERVICE MILWAUKEE/SULLIVAN WI
1000 PM CDT MON JUN 29 2015

NOTE: "FAIR" INDICATES FEW OR NO CLOUDS BELOW 12,000 FEET WITH NO
SIGNIFICANT WEATHER AND/OR OBSTRUCTIONS TO VISIBILITY.

WIZ001-002-006>008-014>016-023>028-300400-
NORTHWEST WISCONSIN

CITY           SKY/WX    TMP DP  RH WIND       PRES   REMARKS
SUPERIOR ARPT  CLEAR     64  61  90 N3        29.82R
ASHLAND        MOCLDY    62  62 100 N5        29.82R
HAYWARD        PTCLDY    62  60  93 CALM      29.82R
SIREN          CLEAR     61  60  96 CALM      29.82S
CUMBERLAND     CLEAR     61  59  94 W3        29.82R
RICE LAKE      CLEAR     60  59  94 W3        29.83R FOG
CHETEK         CLEAR     60  59  99 CALM      29.82R
LADYSMITH      FOG       60  58  94 CALM      29.83R VSB 3/4
EAU CLAIRE     PTCLDY    58  57  97 N5        29.81R FOG
MENOMONIE      PTCLDY    62  61  96 W3        29.82R
NEW RICHMOND   CLEAR     59  59  99 CALM      29.84R
OSCEOLA        CLEAR     61  61 100 CALM      29.85R
$$

WIZ003>005-009-010-017-018-300400-
NORTH CENTRAL WISCONSIN

CITY           SKY/WX    TMP DP  RH WIND       PRES   REMARKS
MANITOWISH WTR PTCLDY    61  61  99 N6        29.80S
ARBOR VITAE    PTCLDY    63  61  93 N5        29.80R
WOODRUFF       PTCLDY    63  61  93 N5        29.80R
RHINELANDER    MOCLDY    60  58  92 CALM      29.80S FOG
EAGLE RIVER    MOCLDY    59  59  97 CALM      29.80S
LAND O LAKES   LGT RAIN  61  59  93 CALM      29.82R
PHILLIPS       CLEAR     58  58 100 CALM      29.80R FOG
TOMAHAWK       FOG       56  55  96 CALM      29.80S VSB 1/2
MEDFORD        PTCLDY    56  56  99 NW3       29.80S FOG
MERRILL        MOCLDY    57  57 100 CALM      29.80S FOG
$$

WIZ029-030-035-036-043>047-300400-
CENTRAL WISCONSIN

CITY           SKY/WX    TMP DP  RH WIND       PRES   REMARKS
WAUSAU         MOCLDY    62  58  86 NW5       29.77S
MOSINEE        NOT AVBL
MARSHFIELD     MOCLDY    60  56  86 NW3       29.80R FOG
STEVENS POINT  MOCLDY    59  57  92 CALM      29.79R
WAUPACA        MOCLDY    63  62  96 W3        29.77S
WAUTOMA        MOCLDY    63  63 100 CALM      29.79R
WISC RAPIDS    MOCLDY    59  57  93 SW3       29.81R FOG
CAMP DOUGLAS   FOG       57  57 100 NW3       29.80R VSB 1/4
$$

WIZ011>013-019>022-031-037>040-048>050-300400-
NORTHEAST WISCONSIN

CITY           SKY/WX    TMP DP  RH WIND       PRES   REMARKS
ANTIGO         MOCLDY    58  58  99 NW3       29.79S FOG
SHAWANO        MOCLDY    64  62  93 W3        29.77S
OCONTO         CLOUDY    64  64 100 CALM      29.76R
STURGEON BAY   CLOUDY    63  55  77 S8        29.78S
GREEN BAY      LGT RAIN  65  63  93 NE3       29.77S FOG
MANITOWOC      MOCLDY    63  60  90 MISG      29.78R
APPLETON       MOCLDY    63  57  82 NW9       29.77
CLINTONVILLE   MOCLDY   N/A N/A N/A CALM      29.76F
OSHKOSH        PTCLDY    63  58  83 W5        29.76S
$$

WIZ032>034-041-042-053>061-300400-
SOUTHWEST WISCONSIN

CITY           SKY/WX    TMP DP  RH WIND       PRES   REMARKS
LA CROSSE      CLOUDY    64  61  90 E3        29.80R
SPARTA         CLOUDY    61  59  94 CALM      29.81R
VIROQUA        CLOUDY    61  61 100 W5        29.82R
BOSCOBEL       CLOUDY    64  61  90 VRB5      29.81R
PRAIRIE DU CHI LGT RAIN  63  61  96 W13       29.84R
PLATTEVILLE    CLOUDY    64  63  96 SE10      29.79F
$$

WIZ056-057-062-063-064-067-068-300400-
SOUTH CENTRAL WISCONSIN

CITY           SKY/WX    TMP DP  RH WIND       PRES   REMARKS
REEDSBURG      MOCLDY    60  59  96 W3        29.79R
BARABOO/DELLS  MOCLDY    60  58  92 CALM      29.80R
LONE ROCK      CLOUDY    63  61  93 NE3       29.79R
MINERAL POINT  LGT RAIN  63  61  94 S8        29.80F
MADISON        CLOUDY    64  59  83 CALM      29.78F
MIDDLETON      CLOUDY    64  62  94 CALM      29.80S
WATERTOWN      MOCLDY    62  62 100 CALM      29.78S
MONROE         LGT RAIN  61  59  94 CALM      29.82S
JANESVILLE     LGT RAIN  63  61  94 W5        29.80R
$$

WIZ051-052-058>065-066-070>072-300400-
SOUTHEAST WISCONSIN

CITY           SKY/WX    TMP DP  RH WIND       PRES   REMARKS
MILWAUKEE      MOCLDY    64  60  87 S8        29.79R
WAUKESHA       LGT RAIN  64  61  88 SW5       29.80S
MILWAUKEE/TIMM MOCLDY    68  59  73 S7        29.80R
RACINE         MOCLDY    63  60  90 S8        29.81R FOG
BURLINGTON     PTCLDY    61  60  97 SW3       29.80R FOG
KENOSHA        PTCLDY    64  61  90 SE5       29.80R
FOND DU LAC    CLOUDY    65  61  87 SW6       29.78R
SHEBOYGAN      MOCLDY    64  60  87 S7        29.77S
WEST BEND      MOCLDY    63  61  94 CALM      29.78S
JUNEAU         CLOUDY    63  62  96 SW5       29.79S
$$

LSZ147-162-300400-
LAKE SUPERIOR

STATION/POSITION TIME  TEMP    WIND        PRES    WAVE
                       AIR SEA DIR/SP/G            HT/PER
                 (UTC) (F)     (DEG/KT/KT) (MB)    (FT/S)
W MID LAKE BUOY  0250   47 38   10/  6/  6 1009.7R   0
DEVILS ISLAND    0300   59      20/  4/  4 1010.2R
SAXON HARBOR     0200   64      40/  6/  7 1008.8
$$

LMZ867-665-643>646-300400-
LAKE MICHIGAN

STATION/POSITION TIME  TEMP    WIND        PRES    WAVE
                       AIR SEA DIR/SP/G            HT/PER
                 (UTC) (F)     (DEG/KT/KT) (MB)    (FT/S)
CHAMBERS ISLAND  0200   67      CALM  /  5 1007.8S
S GREEN BAY BUOY 0300   70 71  220/ 10/ 14 1009.1
N MID LAKE BUOY  0250   54 49  210/ 10/ 12 1008.4R   1/ 3
NORTHPORT PIER   0200   66     150/  3/  4 1007.8S
ALGOMA LAKESHORE 0210          200/ 10/ 11   N/A
KEWAUNEE LAKESHO 0300   60     180/ 10/ 12 1007.5R
SHEBOYGAN LAKESH 0300   60     180/ 12/ 13 1008.6R
PORT WASHINGTON  0200   63     180/  6/  9 1008.8F
ATWATER BUOY     0300   62 60  170/ 10/ 12 1010.1R
MILWAUKEE LAKESH 0300   62     150/  5/  6   N/A
KENOSHA   LAKESH 0300   62     170/  7/  9 1009.1R
$$

TC  - TEMPERATURE IN CELSIUS
VSB - VISIBILITY IN STATUTE MILES
WCI - WIND CHILL INDEX
HX  - HEAT INDEX



USA.gov is the U.S. government's official web portal to all federal, state and local government web resources and services.